User: anonymous   Login
Location: Mt. Chestnut Observatory
(40.9038°N, 79.9956°W)
Time: 19:08:17
(UTC-05:00)
Language:

Cosmos 2034 Rocket - Orbit

View from above orbital plane
View from above orbital plane
View from above satellite
View from above satellite

Ground track
Ground track

The orbit data is extracted from the following two-line orbital elements,

1 20150U 89059B   15060.37232187  .00000064  00000-0  50044-4 0  9991
2 20150 082.9433 356.3590 0030234 103.8712 014.8310 13.75595587285067
Epoch (UTC): 01 March 2015 08:56:08
Eccentricity: 0.0030234
inclination: 82.9433°
perigee height: 957 km
apogee height: 1002 km
right ascension of ascending node: 356.3590°
argument of perigee: 103.8712°
revolutions per day: 13.75595587
mean anomaly at epoch: 14.8310°
orbit number at epoch: 28506

The dashed part of the orbit path shows where the satellite is in the earth's shadow,  

DLR